TimeEST,TemperatureF,Dew PointF,Humidity,Sea Level PressureIn,VisibilityMPH,Wind Direction,Wind SpeedMPH,Gust SpeedMPH,PrecipitationIn,Events,Conditions,WindDirDegrees,DateUTC
12:58 AM,34.0,30.9,89,30.13,8.0,NW,9.2,-,N/A,,Mostly Cloudy,310,2013-01-26 05:58:00
1:58 AM,34.0,30.0,85,30.13,7.0,NW,10.4,-,N/A,,Overcast,320,2013-01-26 06:58:00
2:58 AM,33.1,28.9,85,30.12,6.0,NW,8.1,-,N/A,,Scattered Clouds,320,2013-01-26 07:58:00
3:58 AM,32.0,28.0,85,30.13,7.0,WNW,10.4,-,N/A,,Clear,290,2013-01-26 08:58:00
4:58 AM,32.0,28.0,85,30.15,7.0,NW,8.1,-,N/A,,Clear,310,2013-01-26 09:58:00
5:58 AM,30.9,27.0,85,30.15,7.0,NNW,8.1,-,N/A,,Clear,340,2013-01-26 10:58:00
6:58 AM,30.9,28.0,89,30.17,6.0,North,6.9,-,N/A,,Mostly Cloudy,350,2013-01-26 11:58:00
7:58 AM,30.9,28.0,89,30.18,4.0,North,6.9,-,N/A,,Clear,360,2013-01-26 12:58:00
8:58 AM,33.1,28.9,85,30.20,6.0,North,9.2,-,N/A,,Clear,10,2013-01-26 13:58:00
9:58 AM,37.9,30.9,76,30.21,6.0,NNE,8.1,-,N/A,,Haze,20,2013-01-26 14:58:00
10:38 AM,39.2,33.8,81,30.23,4.0,NNE,8.1,-,N/A,,Haze,20,2013-01-26 15:38:00
10:58 AM,39.9,33.1,77,30.23,4.0,North,8.1,-,N/A,,Haze,10,2013-01-26 15:58:00
11:58 AM,39.0,32.0,76,30.23,9.0,North,11.5,-,N/A,,Overcast,10,2013-01-26 16:58:00
12:23 PM,39.2,32.0,75,30.22,10.0,NNE,11.5,-,N/A,,Mostly Cloudy,20,2013-01-26 17:23:00
12:58 PM,37.9,32.0,79,30.22,10.0,NNE,9.2,-,N/A,,Overcast,30,2013-01-26 17:58:00
1:30 PM,37.4,30.2,75,30.23,9.0,North,10.4,-,N/A,,Overcast,360,2013-01-26 18:30:00
1:58 PM,37.9,32.0,79,30.22,8.0,North,10.4,-,N/A,,Overcast,10,2013-01-26 18:58:00
2:53 PM,37.4,30.2,75,30.22,8.0,North,9.2,-,N/A,,Overcast,360,2013-01-26 19:53:00
2:58 PM,37.0,30.9,79,30.22,8.0,North,8.1,-,N/A,,Overcast,10,2013-01-26 19:58:00
3:23 PM,35.6,30.2,81,30.23,8.0,North,10.4,-,N/A,,Overcast,10,2013-01-26 20:23:00
3:58 PM,36.0,30.9,82,30.25,9.0,North,8.1,-,N/A,,Overcast,350,2013-01-26 20:58:00
4:58 PM,34.0,30.0,85,30.26,7.0,North,8.1,-,N/A,,Overcast,10,2013-01-26 21:58:00
5:58 PM,33.1,30.0,89,30.30,7.0,NNE,9.2,-,N/A,,Overcast,30,2013-01-26 22:58:00
6:58 PM,33.1,30.0,89,30.32,8.0,North,8.1,-,N/A,,Overcast,360,2013-01-26 23:58:00
7:58 PM,33.1,28.9,85,30.32,8.0,North,11.5,-,N/A,,Overcast,10,2013-01-27 00:58:00
8:32 PM,33.8,28.4,81,30.33,9.0,NNE,9.2,-,N/A,,Overcast,20,2013-01-27 01:32:00
8:58 PM,34.0,30.0,85,30.34,9.0,North,5.8,-,N/A,,Overcast,10,2013-01-27 01:58:00
9:58 PM,34.0,28.9,82,30.36,10.0,NNE,8.1,-,N/A,,Overcast,20,2013-01-27 02:58:00
10:58 PM,34.0,30.0,85,30.39,10.0,North,8.1,-,N/A,,Overcast,360,2013-01-27 03:58:00
11:26 PM,33.8,28.4,81,30.38,9.0,North,8.1,-,N/A,,Scattered Clouds,10,2013-01-27 04:26:00
11:58 PM,32.0,28.9,88,30.39,8.0,North,8.1,-,N/A,,Clear,10,2013-01-27 04:58:00